Weather in Novotazlarovo

Russia / Republic of Bashkortostan     55°50′45″N   55°34′13″E
temp.,
°C
wind,
m/s
gust,
m/s
humid.,
%
clouds,
%
prec.,
mm/h
press.,
hPa
HPBL,
m
17 september, fri
fri1723:00+6wnw71082100 0.1 10061190
02:00+5wnw61087100 0.3 1006758
05:00+6wnw61190100 0.4 1007756
08:00+6wnw61090100 0.1 1008634
11:00+6wnw5888100 0.1 1009728
14:00+7wnw5783100 0.1 1010802
17:00+8wnw5780100 0.4 1011837
20:00+6wnw4888100 0.1 1012435
18 september, sat
sat1823:00+5wnw379299 0.2 1012401
02:00+5w4691100 0.1 1012422
05:00+5wnw4687100 0.3 1012741
08:00+4w4795100 0.6 1012839
11:00+5nnw5790100 1.2 1013771
14:00+5nnw6786100 0.4 1014663
17:00+7nw686696 0.6 10151260
20:00+5nw51077100 0.2 1016414
19 september, sun
sun1923:00+3wnw4108887 0.4 1017327
02:00+1wnw410945 0.0 1017315
05:000nw5109690 0.0 1019428
08:00+2wnw5982100 0.0 1019797
11:00+4nw6864100 0.1 10201314
14:00+5nw6860100 0.0 10221382
17:00+5nw586091 0.0 10231292
20:00+4nw586190 0.0 1024647
20 september, mon
mon2023:00+4nnw4758100 0.0 1025569
02:00+4nnw2663100 0.0 1026268
05:00+4nnw2459100 0.0 1027153
08:00+4nw136098 0.0 1028168
11:00+6n235097 0.0 10291254
14:00+8nnw2244100 0.0 10291335
17:00+9n2244100 0.0 10291287
20:00+6nne2256100 0.0 103013
21 september, tue
tue2123:00+4ene3567100 0.0 1030110
02:00+3ene3474100 0.0 103178
05:00+2ene2278100 0.0 103032
08:00+2ene357682 0.0 1031113
11:00+9e335184 0.0 1030605
14:00+11e2242100 0.0 10291036
17:00+12e2241100 0.0 10291081
20:00+7ene22600 0.0 102914